User: anonymous   Login
Location: Tel Aviv
(32.0670°N, 34.7670°E)
Time: 04:51:59
(UTC+02:00)
Language:

Explorer 7 - Orbit

View from above orbital plane
View from above orbital plane
View from above satellite
View from above satellite

Ground track
Ground track

The orbit data is extracted from the following two-line orbital elements,

1 00022U 59009A   22022.50575557  .00000928  00000-0  90190-4 0  9996
2 00022  50.2829 240.1372 0137117 331.4825  27.8669 14.96084502557775
Epoch (UTC): 22 January 2022 12:08:17
Eccentricity: 0.0137117
inclination: 50.2829°
perigee height: 483 km
apogee height: 674 km
right ascension of ascending node: 240.1372°
argument of perigee: 331.4825°
revolutions per day: 14.96084502
mean anomaly at epoch: 27.8669°
orbit number at epoch: 55777

The dashed part of the orbit path shows where the satellite is in the earth's shadow,  

DLR